Showing default

KUIPER-00038, 63750

Orbit data source: Space-Track

KUIPER-00038, 63750 is a payload satellite owned by Kuiper Systems (US) in LEO that was launched on Mon, 28 Apr 2025 UTC via an ATLAS V 551 launch vehicle from the Air Force Eastern Test Range (AFETR). Payload-class satellites include a variety of spacecraft equipped with specific instruments for various scientific and technological missions. These include communications satellites like Starlink; space stations such as the ISS; scientific satellites like the Hubble; Earth observation satellites from companies like Planet Labs, Umbra, and HawkEye 360; GPS; miniature CubeSats for education and research; and military/defense satellites.

Loading next visibility...
Identifier
63750, 2025-088AC
Orbit
LEO
Country
Flag of USUS
Related business
Manufacturer
Kuiper Systems
Mission
Operational Commercial Communications
Bus & Motor
KUIPER, Unknown motor
Mass
~490 kg wet, ~490 kg dry
Launch date (UTC)
2025-04-28 (1 year ago)
Launch vehicle
ATLAS V 551
Launch site
Air Force Eastern Test Range (AFETR)
Object type
Payload
Rocket body
Debris
Shape & HBR
Box + 2 Pan, 3.4 m
Radar Cross Section
2.326 m², Large (>1 m²)

Expand to show TLE details & history
Last TLE update: 1 day ago

TLE from 1 day ago
0 KUIPER-00038
1 63750U 25088AC  26170.76283052  .00000999  00000-0  15996-3 0  9993
2 63750  51.9041   6.7414 0000609 100.4969 259.6062 14.79935823 62637
Epoch: 2026-06-19T18:18Z
TLE epoch observation values (Epoch: 2026-06-19T18:18:28.556Z)
Latitude
-0.00004°
Longitude
-175.86476°
Altitude
630.351 km
Speed
7.544 km/s
True Right ascension
00h 26m 57s
True Declination
0° 00' 00"
Sunlit
Object was in daylight at epoch
Visualization orbit readout
Latitude
Unknown
Longitude
Unknown
Altitude
Unknown
Speed
Unknown
Apparent Right ascension
Unknown
Apparent Declination
Unknown
Sunlit
N/A
Visualization observer readout
Local Sidereal Time
08:57:35
Azimuth
Unknown
Elevation
Unknown
Doppler factor
Unknown
Orbital elements
Apogee altitude
630.404 km
Perigee altitude
629.55 km
Semi-major axis
7,008.114 km
Eccentricity
0.00006
Inclination
51.9041°
RAAN
6.7414°
Arg. of periapsis
100.4969°
True anomaly
259.59934°
Mean anomaly
259.6062°
Eccentric anomaly
259.60277°
Mean motion
3.69949 °/min
Orbital period
97.31 mins
BSTAR
0.00015996
Loading maneuver chart data...
Computing Atmospheric mass density...
Loading historical data...
Loading historical data...
Loading historical data...
Loading historical data...
Loading historical data...
Loading historical data...
Loading historical data...

Documentation

Showing up to 5 results
|